ABL8013 RKSS-RKPC

Flight info

Callsign ABL8013
Flight time 0h 56m
Altitude 26000
Route BULTI Y711 DOTOL
Aircraft A321/M-SDE3FGHIRWY/LB1

Departure

Time 2025-09-05 19:38
Airport Gimpo International Airport (RKSS)

Arrival

Time 2025-09-05 20:34
Airport Jeju International Airport (RKPC)
Time Latitude Longitude Altitude Speed Heading
2025-09-05 19:00 37.55720 126.79988 67 ft 0 kts 225°
2025-09-05 19:31 37.55683 126.79940 65 ft 7 kts 225°
2025-09-05 19:32 37.55792 126.79730 63 ft 15 kts 315°
2025-09-05 19:32 37.55872 126.79628 65 ft 18 kts 315°
2025-09-05 19:32 37.56063 126.79387 62 ft 21 kts 316°
2025-09-05 19:33 37.56277 126.79120 64 ft 22 kts 315°
2025-09-05 19:33 37.56503 126.78835 58 ft 24 kts 315°
2025-09-05 19:34 37.56740 126.78536 66 ft 25 kts 315°
2025-09-05 19:34 37.56994 126.78215 62 ft 27 kts 315°
2025-09-05 19:35 37.57085 126.77883 63 ft 12 kts 219°
2025-09-05 19:36 37.56933 126.77999 64 ft 37 kts 135°
2025-09-05 19:36 37.56565 126.78463 63 ft 110 kts 135°
2025-09-05 19:36 37.55042 126.80398 663 ft 170 kts 136°
2025-09-05 19:37 37.53357 126.82507 2085 ft 170 kts 141°
2025-09-05 19:37 37.51669 126.84612 3206 ft 173 kts 141°
2025-09-05 19:38 37.49675 126.86759 3704 ft 208 kts 159°
2025-09-05 19:38 37.46538 126.86981 4091 ft 248 kts 185°
2025-09-05 19:39 37.43040 126.86760 5410 ft 254 kts 184°
2025-09-05 19:40 37.37584 126.86419 7293 ft 269 kts 184°
2025-09-05 19:40 37.35932 126.86329 7860 ft 272 kts 185°
2025-09-05 19:40 37.32097 126.86103 9121 ft 280 kts 186°
2025-09-05 19:41 37.28142 126.85850 10147 ft 296 kts 186°
2025-09-05 19:41 37.23750 126.85565 10412 ft 335 kts 185°
2025-09-05 19:42 37.18934 126.85275 11114 ft 353 kts 185°
2025-09-05 19:42 37.14080 126.84990 11989 ft 360 kts 185°
2025-09-05 19:43 37.09052 126.84690 12881 ft 368 kts 185°
2025-09-05 19:43 37.03993 126.84388 13710 ft 375 kts 185°
2025-09-05 19:44 36.98742 126.84077 14476 ft 380 kts 185°
2025-09-05 19:44 36.93436 126.83759 15242 ft 384 kts 185°
2025-09-05 19:45 36.88075 126.83433 16030 ft 387 kts 185°
2025-09-05 19:45 36.82738 126.83109 16796 ft 391 kts 185°
2025-09-05 19:46 36.77276 126.82787 17573 ft 395 kts 185°
2025-09-05 19:46 36.71763 126.82475 18291 ft 399 kts 184°
2025-09-05 19:47 36.66180 126.82550 18937 ft 403 kts 180°
2025-09-05 19:47 36.60557 126.82874 19576 ft 406 kts 180°
2025-09-05 19:48 36.54884 126.83171 20210 ft 409 kts 180°
2025-09-05 19:48 36.49174 126.83401 20844 ft 412 kts 181°
2025-09-05 19:49 36.43420 126.83604 21414 ft 416 kts 181°
2025-09-05 19:49 36.37661 126.83681 21993 ft 417 kts 187°
2025-09-05 19:50 36.28956 126.82718 22865 ft 420 kts 187°
2025-09-05 19:50 36.26033 126.82406 23147 ft 422 kts 187°
2025-09-05 19:51 36.20162 126.81778 23675 ft 425 kts 187°
2025-09-05 19:52 36.11270 126.80806 24357 ft 430 kts 187°
2025-09-05 19:52 36.05292 126.80154 24804 ft 432 kts 187°
2025-09-05 19:53 35.99286 126.79505 25239 ft 435 kts 187°
2025-09-05 19:55 35.75100 126.76877 25933 ft 435 kts 186°
2025-09-05 19:57 35.51016 126.74289 25927 ft 435 kts 186°
2025-09-05 19:58 35.29902 126.72030 25926 ft 435 kts 186°
2025-09-05 20:01 35.02762 126.69140 25930 ft 436 kts 187°
2025-09-05 20:02 34.82645 126.67017 25925 ft 436 kts 187°
2025-09-05 20:04 34.58897 126.64520 25145 ft 392 kts 187°
2025-09-05 20:05 34.53387 126.63945 24981 ft 400 kts 187°
2025-09-05 20:06 34.45106 126.63073 23565 ft 396 kts 187°
2025-09-05 20:06 34.42362 126.62785 22985 ft 394 kts 187°
2025-09-05 20:06 34.36955 126.62222 21989 ft 386 kts 187°
2025-09-05 20:07 34.31693 126.61678 21058 ft 379 kts 187°
2025-09-05 20:08 34.23986 126.60300 19682 ft 369 kts 201°
2025-09-05 20:08 34.19263 126.57969 18766 ft 365 kts 204°
2025-09-05 20:08 34.16920 126.56811 18292 ft 363 kts 203°
2025-09-05 20:09 34.09969 126.53405 16804 ft 355 kts 203°
2025-09-05 20:10 34.05433 126.51188 15831 ft 349 kts 204°
2025-09-05 20:10 34.03195 126.50093 15346 ft 346 kts 204°
2025-09-05 20:10 33.98797 126.47936 14374 ft 341 kts 204°
2025-09-05 20:11 33.94432 126.45796 13361 ft 337 kts 204°
2025-09-05 20:12 33.88032 126.42663 11916 ft 326 kts 204°
2025-09-05 20:12 33.83862 126.40630 10969 ft 320 kts 204°
2025-09-05 20:13 33.79817 126.38658 10442 ft 302 kts 204°
2025-09-05 20:13 33.76044 126.36815 10004 ft 287 kts 204°
2025-09-05 20:13 33.74224 126.35929 9861 ft 285 kts 204°
2025-09-05 20:14 33.70630 126.34181 9609 ft 265 kts 204°
2025-09-05 20:14 33.67316 126.32571 9105 ft 256 kts 204°
2025-09-05 20:15 33.64571 126.31237 8542 ft 254 kts 204°
2025-09-05 20:16 33.59680 126.28866 7545 ft 252 kts 203°
2025-09-05 20:16 33.56438 126.27293 6876 ft 251 kts 203°
2025-09-05 20:17 33.53209 126.25727 6209 ft 250 kts 203°
2025-09-05 20:17 33.50001 126.24174 5527 ft 247 kts 203°
2025-09-05 20:17 33.48415 126.23408 5198 ft 245 kts 202°
2025-09-05 20:18 33.45254 126.23741 4537 ft 250 kts 144°
2025-09-05 20:18 33.43600 126.26655 3923 ft 250 kts 121°
2025-09-05 20:19 33.42246 126.30285 3225 ft 237 kts 99°
2025-09-05 20:20 33.44153 126.35533 2224 ft 229 kts 59°
2025-09-05 20:20 33.45720 126.38557 1688 ft 190 kts 60°
2025-09-05 20:21 33.46978 126.40998 1238 ft 159 kts 61°
2025-09-05 20:21 33.47552 126.42111 1038 ft 156 kts 61°
2025-09-05 20:21 33.48676 126.44292 662 ft 153 kts 61°
2025-09-05 20:22 33.49763 126.46405 231 ft 146 kts 62°
2025-09-05 20:22 33.50820 126.48443 517 ft 159 kts 62°
2025-09-05 20:23 33.52638 126.52225 1886 ft 204 kts 59°
2025-09-05 20:24 33.55310 126.53745 2360 ft 239 kts 348°
2025-09-05 20:24 33.56859 126.53077 3038 ft 238 kts 330°
2025-09-05 20:24 33.59074 126.50363 3937 ft 232 kts 281°
2025-09-05 20:25 33.58339 126.46624 4010 ft 239 kts 238°
2025-09-05 20:25 33.56598 126.43220 3998 ft 239 kts 237°
2025-09-05 20:26 33.54827 126.39819 3900 ft 242 kts 237°
2025-09-05 20:27 33.52191 126.34775 3178 ft 236 kts 237°
2025-09-05 20:27 33.51339 126.33128 2971 ft 234 kts 237°
2025-09-05 20:28 33.48804 126.28218 2902 ft 225 kts 237°
2025-09-05 20:28 33.47032 126.25603 2892 ft 204 kts 209°
2025-09-05 20:29 33.44307 126.25532 2894 ft 206 kts 153°
2025-09-05 20:29 33.42635 126.28288 2900 ft 213 kts 115°
2025-09-05 20:30 33.42344 126.31779 2816 ft 219 kts 74°
2025-09-05 20:30 33.43834 126.34919 2341 ft 209 kts 59°
2025-09-05 20:31 33.45236 126.37622 1844 ft 176 kts 59°
2025-09-05 20:31 33.45834 126.38781 1640 ft 166 kts 61°
2025-09-05 20:32 33.47566 126.42140 1027 ft 154 kts 62°
2025-09-05 20:32 33.48128 126.43235 799 ft 154 kts 59°
2025-09-05 20:33 33.49776 126.46431 219 ft 145 kts 59°
2025-09-05 20:33 33.50701 126.48227 92 ft 86 kts 58°
2025-09-05 20:34 33.51009 126.48862 89 ft 23 kts 77°
2025-09-05 20:34 33.51028 126.49168 88 ft 18 kts 90°
2025-09-05 20:35 33.50999 126.49366 95 ft 12 kts 150°
2025-09-05 20:35 33.50925 126.49388 93 ft 11 kts 213°
2025-09-05 20:36 33.50789 126.49231 91 ft 7 kts 174°
2025-09-05 20:36 33.50766 126.49234 94 ft 0 kts 174°